Retour au catalogue

CZ-6A DEB

ActifSSO
NORAD 54571·DEBRIS·🇨🇳 China

Lancé Nov 11, 2022 depuis Taiyuan Satellite Launch Center

Loading…

Prochains Passages (prochaines 24 heures)

TLE

FraisSource: Space-Track

Époque: Sep 13, 2026, 23:04 UTC

1 54571U 22151LX  26256.96139387  .00000499  00000-0  29850-3 0  9999
2 54571  98.8041 242.7649 0059956 104.4722 256.3112 14.10619304197187

Suivez CZ-6A DEB en temps réel avec AllMySat

Download on the App Store